Location: Lafig�re
(44.4503°N, 4.0357°E)
Time: 01:09:51
(UTC+00:00)

Transit 4A - Pass Details

Date: 29 January 2021
Orbit: 866 x 979 km, 66.8° (Epoch: 24 February)

Event Time Altitude Azimuth Distance (km) Brightness Sun altitude
Rises 03:16:49 0° 322° (NW) 3,613 - -40.7°
Reaches altitude 10° 03:19:30 10° 316° (NW) 2,647 - -40.2°
Maximum altitude 03:25:12 41° 248° (WSW) 1,291 - -39.3°
Drops below altitude 10° 03:30:44 10° 180° (S) 2,558 - -38.3°
Sets 03:33:18 0° 173° (S) 3,479 - -37.9°
